Stations météo

réclame
Mon MeteoGroup
Saint-Quentin, France (7061): Température de l'air & dewpoint: 17.09.2017 21:00:00 - 23.09.2017 21:00:00 (CEST)Saint-Quentin, France (7061): Température de l'air 5cm: 17.09.2017 21:00:00 - 23.09.2017 21:00:00 (CEST)Saint-Quentin, France (7061): Température de l'air -20cm & Température de l'air -100cm: 17.09.2017 21:00:00 - 23.09.2017 21:00:00 (CEST)Saint-Quentin, France (7061): Vitesse du vent & gusts: 17.09.2017 21:00:00 - 23.09.2017 21:00:00 (CEST)Saint-Quentin, France (7061): Direction du vent: 17.09.2017 21:00:00 - 23.09.2017 21:00:00 (CEST)Saint-Quentin, France (7061): reduced air pressure: 17.09.2017 21:00:00 - 23.09.2017 21:00:00 (CEST)Saint-Quentin, France (7061): visibility: 17.09.2017 21:00:00 - 23.09.2017 21:00:00 (CEST)Saint-Quentin, France (7061): Ensoleillement: 17.09.2017 21:00:00 - 23.09.2017 21:00:00 (CEST)Saint-Quentin, France (7061): Quantités de précipitations: 17.09.2017 21:00:00 - 23.09.2017 21:00:00 (CEST)
Date & Time tt [°C] td [°C] tt 5cm [°C] tt -20cm [°C] tt -100cm [°C] ff [km/h] ff [knt] fx [km/h] fx [knt] dd ppp [hPa] vv [km] sd [min] rr [mm]
23.09.2017 21:00:00 13,9 10,1 11,3 15,3 15,1 8 5 14 7 ENE 1021,7 20 0 0,0
23.09.2017 20:00:00 15,5 10,9 11,4 15,2 15,1 5 3 7 4 ENE 1021,5 20 3 0,0
23.09.2017 19:00:00 17,4 11,4 16,6 15,1 15,1 2 1 5 3 WNW 1021,4 20 2 0,0
23.09.2017 18:00:00 18,2 9,3 19,2 14,9 15,1 0 0 6 3 N 1021,3 20 0 0,0
23.09.2017 17:00:00 18,8 9,3 21,6 14,7 15,2 3 1 8 5 SSW 1021,6 20 43 0,0
23.09.2017 16:00:00 19,0 9,7 24,4 14,5 15,1 4 2 13 7 SW 1022,1 20 60 0,0
23.09.2017 15:00:00 19,1 10,6 24,4 14,4 15,1 4 2 10 5 SSW 1022,8 20 60 0,0
23.09.2017 14:00:00 18,5 11,3 23,4 14,2 15,1 3 2 10 5 E 1023,1 19 55 0,0
23.09.2017 13:00:00 15,7 10,9 20,2 14,2 15,1 3 2 7 4 S 1023,6 15 53 0,0
23.09.2017 12:00:00 13,4 13,4 15,4 14,2 15,2 0 0 6 3 N 1024,0 2,5 19 0,0
23.09.2017 11:00:00 10,8 10,8 10,8 14,2 15,1 0 0 8 4 N 1024,2 0,1 0 0,0
23.09.2017 10:00:00 9,0 8,9 9,6 14,3 15,1 3 2 6 4 SE 1024,2 0,1 0 0,0
23.09.2017 09:00:00 8,2 8,1 8,3 14,4 15,1 4 2 10 5 ESE 1024,0 0,1 0 0,2
23.09.2017 08:00:00 7,9 7,8 5,6 14,5 15,2 5 3 7 4 E 1024,0 0,1 0 0,0
23.09.2017 07:00:00 5,9 5,6 2,4 14,6 15,2 3 2 6 3 E 1024,0 1,0 0 0,0
23.09.2017 06:00:00 5,9 5,6 2,5 14,7 15,2 0 0 5 3 N 1023,9 0,4 0 0,0
23.09.2017 05:00:00 6,5 6,2 2,4 14,8 15,2 4 2 6 3 NW 1024,2 2,1 0 0,0
23.09.2017 04:00:00 7,0 6,7 1,9 14,9 15,2 2 1 5 3 WNW 1024,2 0,4 0 0,0
23.09.2017 03:00:00 7,6 7,0 2,5 15,0 15,1 0 0 9 5 N 1024,4 0,7 0 0,0
23.09.2017 02:00:00 8,8 8,2 4,6 15,1 15,2 5 3 9 5 W 1024,3 11 0 0,0
23.09.2017 01:00:00 9,2 8,3 4,8 15,1 15,2 4 2 8 5 NNW 1024,1 17 0 0,0
23.09.2017 00:00:00 10,9 9,2 7,4 15,2 15,1 7 4 13 7 NNW 1024,0 20 0 0,0
22.09.2017 23:00:00 11,6 9,3 9,7 15,2 15,2 9 5 16 9 NNW 1024,0 20 0 0,0
22.09.2017 22:00:00 12,1 9,3 9,8 15,2 15,2 8 4 18 10 NNW 1023,7 20 0 0,0
22.09.2017 21:00:00 13,7 9,1 11,8 15,1 15,2 10 5 17 9 NW 1023,3 20 0 0,0
22.09.2017 20:00:00 15,2 9,3 13,0 15,0 15,2 11 6 18 10 NW 1022,5 20 31 0,0
22.09.2017 19:00:00 17,5 9,9 17,0 14,8 15,2 10 5 17 9 WNW 1021,8 20 60 0,0
22.09.2017 18:00:00 18,9 10,5 21,5 14,8 15,2 10 6 16 9 WNW 1021,5 20 60 0,0
22.09.2017 17:00:00 19,2 11,2 19,1 14,6 15,2 6 4 14 7 W 1021,5 20 40 0,0
22.09.2017 16:00:00 18,4 12,2 20,2 14,5 15,2 9 5 17 9 WNW 1021,5 20 46 0,0
22.09.2017 15:00:00 17,4 12,9 19,6 14,4 15,2 7 4 15 8 WNW 1021,7 20 10 0,0
22.09.2017 14:00:00 16,7 13,4 17,7 14,3 15,2 6 4 14 7 WNW 1021,7 20 0 0,0
22.09.2017 13:00:00 16,1 13,0 18,8 14,3 15,2 8 5 12 6 WNW 1021,6 20 1 0,0
22.09.2017 12:00:00 15,4 13,8 15,6 14,3 15,2 7 4 11 6 WNW 1021,4 20 4 0,0
22.09.2017 11:00:00 13,7 12,9 13,6 14,3 15,2 5 3 8 4 WNW 1021,4 11 0 0,4
22.09.2017 10:00:00 12,5 11,6 11,7 14,3 15,2 4 2 6 3 WSW 1021,1 14 0 0,0
22.09.2017 09:00:00 11,0 10,2 10,5 14,3 15,2 0 0 5 3 N 1020,6 11 0 0,0
22.09.2017 08:00:00 10,4 9,8 9,9 14,4 15,2 2 1 5 3 WNW 1020,4 9 0 0,0
22.09.2017 07:00:00 9,7 9,2 8,2 14,5 15,2 3 1 7 4 W 1020,0 11 0 0,0
22.09.2017 06:00:00 9,0 8,4 7,9 14,5 15,2 3 2 6 3 WSW 1019,9 9 0 0,0
22.09.2017 05:00:00 9,0 8,2 5,4 14,6 15,2 3 2 5 3 N 1019,8 13 0 0,0
22.09.2017 04:00:00 9,0 8,2 5,7 14,7 15,2 4 2 8 5 E 1019,7 18 0 0,0
22.09.2017 03:00:00 9,5 8,7 4,4 14,8 15,2 5 3 16 9 NW 1019,7 18 0 0,0
22.09.2017 02:00:00 10,4 9,2 4,6 14,8 15,2 4 2 9 5 E 1019,6 20 0 0,0
22.09.2017 01:00:00 10,7 9,1 5,9 14,9 15,3 6 4 9 5 E 1019,2 20 0 0,0
22.09.2017 00:00:00 11,8 9,5 7,2 14,9 15,2 5 3 8 4 E 1019,1 20 0 0,0
21.09.2017 23:00:00 11,9 9,8 7,9 14,9 15,2 7 4 8 5 E 1019,0 20 0 0,0
21.09.2017 22:00:00 13,2 10,2 8,2 14,9 15,3 6 3 9 5 E 1019,0 20 0 0,0
21.09.2017 21:00:00 14,3 10,3 10,0 14,8 15,2 6 3 8 4 ESE 1018,8 20 0 0,0
21.09.2017 20:00:00 14,8 11,0 10,4 14,7 15,2 6 3 10 5 ESE 1018,4 20 1 0,0
21.09.2017 19:00:00 17,1 11,4 17,6 14,6 15,2 6 3 17 9 SSE 1018,0 20 60 0,0
21.09.2017 18:00:00 18,6 11,4 19,4 14,4 15,3 10 5 22 12 SSE 1017,5 20 60 0,0
21.09.2017 17:00:00 19,0 10,3 21,6 14,3 15,3 13 7 31 17 SSE 1017,6 20 60 0,0
21.09.2017 16:00:00 18,6 10,2 21,3 14,1 15,2 15 8 32 17 S 1017,9 20 60 0,0
21.09.2017 15:00:00 18,4 10,7 22,7 14,0 15,3 14 8 33 18 S 1018,2 20 60 0,0
21.09.2017 14:00:00 18,3 10,6 22,5 13,9 15,3 18 10 26 14 S 1018,9 20 60 0,0
21.09.2017 13:00:00 17,4 12,1 20,8 13,8 15,3 16 9 24 13 SE 1019,2 20 60 0,0
21.09.2017 12:00:00 15,4 10,8 18,0 13,8 15,3 13 7 20 11 SSE 1019,7 20 60 0,0
21.09.2017 11:00:00 13,8 10,4 13,3 13,9 15,3 12 7 18 10 SE 1020,0 20 60 0,0
21.09.2017 10:00:00 11,5 9,6 9,6 14,0 15,3 11 6 15 8 ESE 1020,2 19 60 0,0
21.09.2017 09:00:00 9,1 8,3 6,1 14,0 15,3 9 5 12 6 ESE 1020,1 13 60 0,0
21.09.2017 08:00:00 7,1 6,7 4,2 14,1 15,3 8 4 12 6 E 1020,1 8 6 0,0
21.09.2017 07:00:00 6,9 6,5 4,8 14,2 15,3 8 4 11 6 E 1020,0 10 0 0,0
21.09.2017 06:00:00 7,5 7,1 5,6 14,3 15,3 10 5 12 7 E 1020,0 10 0 0,0
21.09.2017 05:00:00 7,6 7,2 5,3 14,3 15,3 9 5 11 6 E 1020,2 12 0 0,2
21.09.2017 04:00:00 7,7 7,3 5,8 14,4 15,3 9 5 11 6 E 1020,5 12 0 0,0
21.09.2017 03:00:00 8,2 7,8 5,3 14,5 15,3 10 5 11 6 ESE 1020,7 14 0 0,0
21.09.2017 02:00:00 8,5 7,9 5,9 14,5 15,3 9 5 11 6 ESE 1020,8 16 0 0,0
21.09.2017 01:00:00 9,3 8,4 5,8 14,6 15,3 8 4 9 5 E 1020,8 20 0 0,0
21.09.2017 00:00:00 9,7 8,5 5,8 14,6 15,4 6 3 9 5 ESE 1020,6 20 0 0,0
20.09.2017 23:00:00 9,9 8,5 6,0 14,7 15,4 7 4 9 5 ESE 1020,6 20 0 0,0
20.09.2017 22:00:00 10,4 8,5 6,4 14,6 15,4 8 4 10 5 SSE 1020,7 20 0 0,0
20.09.2017 21:00:00 11,6 9,7 7,2 14,6 15,4 8 4 10 5 SSE 1020,9 20 0 0,0
20.09.2017 20:00:00 13,0 9,6 8,9 14,5 15,4 7 4 10 5 S 1020,6 18 16 0,0
20.09.2017 19:00:00 15,0 10,8 15,1 14,3 15,4 9 5 11 6 S 1020,5 20 25 0,0
20.09.2017 18:00:00 17,0 9,4 17,8 14,1 15,4 8 5 15 8 SW 1020,6 20 3 0,0
20.09.2017 17:00:00 17,9 10,3 18,5 14,0 15,4 11 6 21 11 WSW 1021,0 20 53 0,0
20.09.2017 16:00:00 18,2 11,3 18,1 13,8 15,4 11 6 23 13 SW 1021,2 20 38 0,0
20.09.2017 15:00:00 17,3 10,9 19,3 13,7 15,4 13 7 23 13 SSW 1021,6 20 47 0,0
20.09.2017 14:00:00 16,2 11,4 20,6 13,6 15,4 14 7 27 14 WSW 1022,0 20 60 0,0
20.09.2017 13:00:00 14,9 11,3 15,3 13,6 15,4 9 5 16 9 SSW 1022,4 20 46 0,0
20.09.2017 12:00:00 12,5 10,2 13,3 13,6 15,4 9 5 16 9 SSW 1022,9 20 0 0,0
20.09.2017 11:00:00 10,9 10,0 10,5 13,7 15,4 8 5 16 9 SSW 1023,1 17 0 0,0
20.09.2017 10:00:00 9,4 9,1 8,9 13,7 15,4 9 5 14 8 SSW 1023,0 8 0 0,0
20.09.2017 09:00:00 8,4 8,3 7,0 13,8 15,4 5 3 8 5 SSW 1022,8 6 0 0,0
20.09.2017 08:00:00 6,5 6,4 4,9 13,9 15,4 0 0 7 4 N 1022,9 3,7 0 0,0
20.09.2017 07:00:00 5,7 5,6 1,3 14,1 15,5 3 2 9 5 W 1022,7 0,5 0 0,0
20.09.2017 06:00:00 5,6 5,5 0,9 14,2 15,4 0 0 5 3 N 1022,6 0,2 0 0,0
20.09.2017 05:00:00 5,7 5,6 0,5 14,3 15,4 3 2 5 3 WSW 1022,9 0,2 0 0,2
20.09.2017 04:00:00 6,3 6,0 0,8 14,3 15,4 3 2 5 3 SW 1023,0 0,2 0 0,0
20.09.2017 03:00:00 7,1 6,8 1,8 14,4 15,5 4 2 7 4 W 1023,3 4,1 0 0,0
20.09.2017 02:00:00 7,7 7,4 2,8 14,5 15,5 6 3 10 5 W 1023,4 10 0 0,0
20.09.2017 01:00:00 7,0 6,3 2,8 14,5 15,5 2 1 11 6 W 1023,2 0,7 0 0,0
20.09.2017 00:00:00 8,8 7,7 6,5 14,6 15,5 10 6 14 8 WNW 1023,4 20 0 0,0
19.09.2017 23:00:00 9,0 7,8 5,6 14,6 15,5 9 5 10 5 WNW 1023,2 20 0 0,0
19.09.2017 22:00:00 10,2 8,5 7,9 14,6 15,5 9 5 12 7 WNW 1023,0 20 0 0,0
19.09.2017 21:00:00 11,7 8,7 10,0 14,5 15,5 10 5 23 12 NW 1022,6 20 0 0,0
19.09.2017 20:00:00 13,5 9,3 12,8 14,4 15,5 16 9 31 17 NW 1021,9 20 0 0,0
19.09.2017 19:00:00 14,3 10,1 14,3 14,4 15,5 20 11 31 17 NW 1021,5 20 7 0,0
19.09.2017 18:00:00 15,6 10,8 17,1 14,3 15,5 17 9 29 15 WNW 1020,9 20 60 0,0
19.09.2017 17:00:00 15,3 10,9 15,3 14,2 15,5 10 6 30 16 NW 1020,7 20 9 0,0
19.09.2017 16:00:00 16,5 10,1 13,0 14,0 15,5 12 6 22 12 NW 1020,5 20 18 0,0
19.09.2017 15:00:00 14,4 10,4 12,9 13,9 15,5 14 8 28 15 NNW 1020,6 20 5 0,2
19.09.2017 14:00:00 15,2 10,4 13,7 13,9 15,5 10 6 23 12 NW 1020,5 20 27 0,0
19.09.2017 13:00:00 12,9 10,8 12,3 13,9 15,6 15 8 23 12 NW 1020,8 19 2 0,4
19.09.2017 12:00:00 12,4 10,5 12,0 13,9 15,5 14 8 29 16 NNW 1020,7 8 4 0,2
19.09.2017 11:00:00 13,5 10,7 13,9 13,9 15,6 14 7 24 13 NNW 1019,8 20 50 0,0
19.09.2017 10:00:00 11,8 9,7 10,7 13,9 15,6 14 7 22 12 WNW 1019,1 20 60 0,0
19.09.2017 09:00:00 10,0 9,4 8,2 14,0 15,6 10 6 14 8 WNW 1018,9 20 44 0,0
19.09.2017 08:00:00 9,1 8,6 8,3 14,1 15,6 10 5 14 8 WNW 1018,8 14 0 0,2
19.09.2017 07:00:00 9,6 9,1 9,1 14,1 15,7 9 5 15 8 WNW 1018,4 7 0 0,8
19.09.2017 06:00:00 9,2 8,9 7,5 14,1 15,6 10 5 14 7 WNW 1018,2 15 0 0,2
19.09.2017 05:00:00 8,6 8,3 7,2 14,2 15,7 7 4 10 6 W 1018,2 12 0 0,0
19.09.2017 04:00:00 8,1 7,8 6,5 14,3 15,7 6 3 8 5 W 1018,3 10 0 0,0
19.09.2017 03:00:00 8,3 7,9 7,1 14,3 15,7 7 4 14 8 W 1018,4 16 0 0,0
19.09.2017 02:00:00 8,8 8,3 6,2 14,4 15,7 9 5 14 8 W 1018,4 19 0 0,0
19.09.2017 01:00:00 8,6 8,2 6,9 14,4 15,7 8 4 14 7 WNW 1018,2 18 0 0,0
19.09.2017 00:00:00 8,6 8,0 5,0 14,5 15,7 8 4 13 7 W 1018,3 16 0 0,0
18.09.2017 23:00:00 9,4 8,6 7,2 14,4 15,7 8 5 13 7 W 1018,2 20 0 0,0
18.09.2017 22:00:00 10,4 9,2 8,8 14,4 15,7 10 5 18 10 W 1018,0 20 0 0,0
18.09.2017 21:00:00 10,8 10,2 7,9 14,4 15,7 7 4 13 7 W 1017,9 20 0 0,0
18.09.2017 20:00:00 11,1 10,0 9,9 14,4 15,7 8 4 13 7 SW 1017,2 20 8 0,0
18.09.2017 19:00:00 12,2 10,4 11,3 14,3 15,7 9 5 16 9 WSW 1016,9 20 0 0,2
18.09.2017 18:00:00 12,2 10,3 11,3 14,2 15,7 4 2 11 6 NNW 1016,6 20 0 0,2
18.09.2017 17:00:00 12,2 9,9 11,7 14,0 15,7 9 5 34 18 N 1016,5 20 8 0,2
18.09.2017 16:00:00 13,5 9,9 11,8 13,9 15,7 19 10 34 18 WNW 1016,1 17 24 0,2
18.09.2017 15:00:00 15,3 10,5 17,4 13,8 15,7 13 7 20 11 W 1015,8 20 52 0,0
18.09.2017 14:00:00 13,7 10,3 11,9 13,7 15,7 14 7 21 12 W 1016,2 20 38 0,4
18.09.2017 13:00:00 12,8 11,0 12,3 13,6 15,7 18 10 25 14 W 1016,4 10 8 0,8
18.09.2017 12:00:00 14,1 11,1 16,5 13,6 15,7 14 7 21 11 WSW 1016,1 20 47 0,0
18.09.2017 11:00:00 12,0 10,9 11,8 13,7 15,8 11 6 17 9 SW 1016,3 18 60 0,0
18.09.2017 10:00:00 9,8 9,7 9,5 13,8 15,8 9 5 13 7 SSW 1016,2 5 14 0,0
18.09.2017 09:00:00 8,4 8,4 6,8 13,8 15,8 5 3 7 4 SW 1015,9 7 0 0,0
18.09.2017 08:00:00 6,8 6,7 3,2 13,9 15,8 4 2 8 5 S 1015,8 1,8 0 0,0
18.09.2017 07:00:00 7,1 7,0 4,0 14,0 15,7 3 2 8 5 SW 1015,5 1,6 0 0,0
18.09.2017 06:00:00 7,0 6,9 4,0 14,1 15,8 6 3 8 5 SW 1015,4 1,9 0 0,0
18.09.2017 05:00:00 6,4 6,3 2,8 14,2 15,8 6 3 8 4 SW 1015,3 0,2 0 0,2
18.09.2017 04:00:00 7,0 6,9 2,2 14,3 15,8 4 2 6 3 WNW 1015,2 3,1 0 0,0
18.09.2017 03:00:00 7,4 7,3 2,0 14,4 15,8 5 3 11 6 WSW 1015,3 3,1 0 0,0
18.09.2017 02:00:00 7,0 6,7 3,7 14,5 15,8 4 2 9 5 WSW 1015,3 6 0 0,0
18.09.2017 01:00:00 7,5 7,4 3,0 14,5 15,8 4 2 6 3 W 1015,2 1,2 0 0,0
18.09.2017 00:00:00 8,2 7,9 2,8 14,6 15,9 5 3 5 3 SSW 1015,1 0,3 0 0,0
17.09.2017 23:00:00 8,1 7,5 3,5 14,7 15,9 0 0 5 3 N 1015,0 0,3 0 0,0
17.09.2017 22:00:00 9,3 8,7 3,8 14,7 15,9 3 2 6 3 W 1014,9 20 0 0,0
17.09.2017 21:00:00 10,1 9,3 4,4 14,7 15,9 3 1 6 3 WSW 1014,3 20 0 0,0

tt = Température de l'air
td = dewpoint
tt 5cm = Température de l'air 5cm
tt -20cm = Température de l'air -20cm
tt -100cm = Température de l'air -100cm
ff = Vitesse du vent
fx = gusts
dd = Direction du vent
ppp = reduced air pressure
vv = visibility
sd = Ensoleillement
rr = Quantités de précipitations

stations d'obs. à proximité